Tracking 35055 objects as of 18-Aug-2026
HD Live streaming from Space Station
objects crossing your sky now

SITRO-AIS-38

Track SITRO-AIS-38 now!
10-day predictions
SITRO-AIS-38 is classified as:


NORAD ID: 61786
Int'l Code: 2024-199BD
Launch date: November 4, 2024
Source: (TBD)
Launch site: VOSTOCHNY COSMODROME (VOSTO)

Uplink (MHz):
Downlink (MHz): 401.045
Beacon (MHz):
Mode: 2k4 GMSK_USP
Call sign: SC2326
Status: Active

Your satellite tracking list
Your tracking list is empty




NASA's NSSDC Master Catalog

Two Line Element Set (TLE):
1 61786U 24199BD  26230.59494867  .00033444  00000-0  54992-3 0  9998
2 61786  97.2823 105.5746 0010024  69.4218 290.8109 15.52252681143987
Source of the keplerian elements: AFSPC